Dewpoint
45 44 45 46 46 48 44 44 44 44 44 45 45 44 45 45 48 46 46 46 47 48 49 47 48 48 48 48 49 49 49 50 51 50 49 49 47 47 49 48 48 47 47 47 48 45 42 40 42 46 47 47 47 48 49 49 49 50 49 50 51 51 52
47 47 47 46 45 45 43 44 44 44 44 45 45 45 44 45 47 47 45 46 46 48 49 47 48 48 48 48 47 47 48 49 50 51 49 49 47 47 48 47 47 46 46 47 48 47 44 41 41 43 43 46 46 48 48 49 49 50 50 50 51 51 51
46 44 44 44 44 44 43 43 44 44 44 44 45 44 44 44 45 46 45 45 46 48 49 47 47 48 48 48 48 47 47 48 48 49 49 48 48 48 49 48 46 46 45 44 45 46 46 45 41 42 43 43 43 46 48 49 49 50 50 50 50 50 50
45 44 43 43 44 44 43 43 43 44 44 44 44 45 44 44 45 47 46 45 47 48 47 47 47 47 48 48 49 47 46 46 47 47 48 48 48 48 48 48 47 46 45 44 44 45 44 43 43 43 44 45 44 44 46 48 49 49 50 50 50 50 50
45 45 44 43 43 43 43 43 44 44 44 44 44 43 44 44 46 45 46 45 46 46 46 47 48 48 48 48 48 49 47 46 46 47 47 47 47 47 47 48 47 47 47 47 46 46 45 45 44 43 43 45 44 45 46 47 48 48 49 49 51 50 51
45 45 44 43 43 43 43 43 43 43 43 43 43 43 43 44 46 45 45 45 45 46 47 47 48 48 48 48 48 48 49 48 47 46 46 47 47 47 47 47 48 47 47 48 47 47 47 46 45 44 45 47 44 45 46 47 46 48 49 49 50 51 51
46 45 45 44 44 44 43 43 43 43 43 43 43 43 43 44 44 44 45 45 45 45 47 47 48 48 48 48 48 48 48 49 48 47 46 46 47 47 48 47 47 47 47 48 48 47 46 45 45 44 44 44 45 43 46 46 47 46 48 49 50 51 51
46 45 46 47 44 44 44 43 43 44 43 43 43 44 43 43 44 44 45 44 44 45 46 46 47 48 48 48 48 48 49 49 49 49 48 47 46 46 46 47 47 47 48 49 48 48 48 47 46 45 44 42 42 43 43 45 46 46 46 48 50 50 51
48 46 46 46 45 45 44 43 43 43 43 43 43 43 42 42 43 43 44 44 44 45 45 46 47 47 48 48 47 47 47 48 48 48 49 48 48 48 47 47 46 47 48 48 48 49 49 48 48 47 46 44 42 41 43 44 44 45 48 46 49 50 51
44 43 43 43 44 45 45 44 43 43 43 43 43 44 42 42 42 44 43 43 44 44 45 45 46 47 47 47 47 47 47 47 48 48 49 48 48 49 49 49 48 48 48 48 48 48 49 49 49 48 48 47 46 44 42 42 44 44 46 48 46 49 51
44 43 43 43 44 44 43 44 43 42 42 43 43 43 42 41 42 43 42 43 43 44 44 45 46 46 47 47 47 46 46 47 46 47 48 48 48 48 48 48 49 49 49 49 49 49 49 48 49 48 48 49 49 45 44 42 44 46 47 48 49 47 50
44 44 44 45 44 43 43 43 42 42 42 43 42 41 41 41 41 41 42 42 43 43 44 44 46 46 46 46 47 46 46 46 46 45 46 47 47 47 47 46 47 47 48 49 48 48 49 49 49 48 48 48 48 47 46 45 44 48 48 47 49 50 48
45 44 44 43 43 43 44 43 42 42 42 42 40 40 40 40 40 40 41 42 42 42 43 44 45 45 46 46 46 45 45 45 45 45 45 46 46 46 46 46 46 46 47 47 47 47 49 49 49 48 48 47 47 47 48 46 45 45 50 49 48 45 46
43 43 43 44 43 43 44 44 43 42 41 41 40 39 39 39 39 40 40 41 41 41 42 43 44 45 45 45 45 45 45 45 44 44 45 45 45 46 46 46 46 46 47 47 48 47 47 47 47 45 46 46 47 47 47 46 45 46 48 49 48 46 47
43 43 43 43 44 43 43 43 43 40 40 40 41 39 38 39 39 39 40 40 40 41 41 42 43 44 44 44 44 44 44 44 44 43 44 43 44 45 45 46 46 46 47 47 47 47 47 47 47 46 44 45 44 45 48 47 47 46 46 47 48 48 46
42 42 42 42 42 43 43 43 42 40 39 39 40 40 39 38 38 39 39 40 40 40 41 41 42 42 43 43 42 43 43 43 43 43 42 42 42 44 45 46 46 46 47 47 47 47 47 47 47 46 45 45 44 45 46 46 46 45 46 45 46 47 47
42 42 42 42 42 42 43 43 42 40 39 39 38 39 40 38 38 38 39 39 40 40 41 41 41 41 41 41 41 41 41 41 42 42 41 41 42 42 43 45 46 47 47 47 47 47 47 47 47 46 46 46 46 45 45 45 44 46 45 45 46 45 47
42 42 42 42 42 42 42 43 43 39 38 38 37 37 37 39 38 38 39 39 40 40 41 40 40 40 40 40 40 40 40 40 41 41 41 41 42 41 43 44 45 46 47 47 47 47 47 47 47 47 46 46 46 46 46 46 45 45 45 45 46 46 47
42 42 42 42 42 42 43 43 42 41 39 37 37 36 36 37 40 37 38 39 40 41 41 40 39 39 39 39 39 40 40 39 40 40 40 40 40 41 42 43 45 46 46 46 47 47 48 47 47 47 46 46 45 46 47 47 46 46 45 45 46 46 47
42 42 42 42 43 42 42 43 42 42 40 37 36 35 35 36 38 38 39 40 41 41 41 41 40 39 39 39 39 38 39 39 39 40 40 39 40 41 41 42 45 46 47 47 47 47 48 47 47 47 47 47 45 46 46 46 46 46 46 46 45 46 46
42 42 42 42 42 42 42 41 41 42 40 38 36 34 35 35 37 38 39 40 41 42 41 41 41 40 39 39 39 39 39 39 39 39 40 39 40 40 41 41 44 46 47 47 48 48 49 48 47 46 47 47 46 46 45 45 46 45 45 45 45 45 46
43 42 42 41 41 41 41 40 40 39 38 38 39 35 35 35 36 37 38 39 40 41 41 42 42 42 42 40 39 40 39 39 39 39 39 39 39 39 40 41 43 46 47 48 48 48 48 48 47 46 46 46 47 46 45 45 45 45 45 45 45 46 45
41 41 41 41 40 40 40 40 39 38 37 37 36 37 34 35 35 36 37 38 39 40 41 42 43 42 42 42 40 40 40 40 39 39 39 38 39 39 40 41 42 45 47 47 47 46 46 46 47 46 46 46 46 45 45 45 44 44 45 44 44 44 44
41 41 40 40 40 40 39 39 38 37 37 36 35 35 33 33 34 35 36 37 38 39 40 41 40 39 39 41 41 39 39 39 39 39 39 38 38 38 39 40 41 42 44 46 45 45 45 45 45 45 45 45 46 45 45 45 44 44 44 44 44 44 44
41 40 40 39 39 39 38 38 37 36 35 35 35 34 33 33 34 35 36 36 37 38 38 41 38 38 38 38 40 39 38 38 38 38 38 38 38 38 38 40 41 41 41 44 44 43 44 46 45 45 44 44 43 42 42 44 45 44 44 44 44 44 44
40 40 39 39 39 38 37 36 35 35 35 36 33 33 33 33 33 34 35 35 36 36 37 39 37 38 37 37 38 39 37 37 37 37 38 38 38 37 37 38 39 40 38 43 42 42 43 43 45 46 45 45 45 44 40 40 42 45 44 45 45 45 44
40 40 39 38 37 36 36 35 36 36 35 35 33 33 33 33 33 33 34 34 35 35 36 38 37 37 37 37 37 36 35 36 35 35 35 37 38 38 37 37 37 38 38 40 41 42 43 43 43 43 43 43 43 44 44 43 42 43 44 44 45 44 45
40 40 39 39 38 37 36 37 36 36 35 33 34 34 33 33 34 34 32 33 34 34 35 37 36 37 37 36 36 36 36 35 34 34 34 35 37 39 37 36 36 36 37 39 41 42 43 43 42 42 42 42 42 43 44 44 43 43 43 43 44 45 46
40 40 39 39 38 37 37 37 36 36 34 32 33 33 33 35 34 34 34 32 31 32 34 36 36 36 37 36 36 35 35 34 34 33 33 33 33 37 38 37 35 35 36 37 39 39 41 42 41 41 41 41 42 42 43 45 42 42 44 43 44 44 45
40 39 39 38 38 38 37 36 35 35 31 31 31 31 32 32 33 34 35 34 31 30 32 36 36 36 36 36 35 34 34 33 33 33 32 32 32 34 37 37 35 35 35 36 37 37 38 42 40 40 40 41 41 41 41 41 42 41 40 40 40 40 41
40 40 39 38 38 38 37 37 36 35 30 31 31 32 30 29 29 31 32 34 35 31 31 35 36 36 36 37 37 33 33 32 32 32 32 32 32 32 34 39 38 35 35 36 36 36 37 40 38 39 40 40 40 40 41 41 42 42 42 41 41 40 40
39 38 38 38 38 38 37 37 36 34 34 33 34 33 31 27 27 27 29 30 35 33 33 34 36 36 37 37 37 34 32 30 30 31 31 31 31 31 32 34 37 36 36 36 35 35 36 38 37 37 38 39 39 39 40 40 43 42 43 43 43 44 42
38 38 38 38 38 38 39 35 34 34 34 31 29 28 28 26 24 25 26 27 28 30 34 33 37 36 37 37 37 34 32 30 30 29 30 30 28 30 31 32 34 35 34 34 34 34 35 36 37 37 37 37 38 39 40 41 43 42 42 42 42 42 42
38 38 38 38 38 39 37 35 35 33 29 27 26 26 27 27 25 24 25 26 26 27 33 35 36 36 36 36 36 34 33 33 30 29 28 28 27 28 29 31 33 34 34 34 34 34 34 35 36 37 37 37 38 40 41 40 41 42 41 41 41 41 40
38 37 38 39 37 35 35 36 34 30 26 25 24 24 26 29 24 23 24 25 28 26 30 36 36 35 35 35 35 35 32 33 33 29 29 27 27 28 29 29 33 33 33 33 33 34 34 34 35 36 36 35 35 36 40 40 40 39 39 39 39 38 38
38 37 38 37 34 34 34 33 31 28 25 24 23 23 24 24 24 23 24 24 25 27 27 30 36 36 35 35 34 34 34 34 32 32 29 28 29 29 29 30 32 33 33 33 33 33 33 34 34 34 34 35 35 35 37 37 38 38 38 38 38 38 37
37 37 37 35 35 33 32 31 29 27 25 25 22 22 23 25 24 24 24 24 25 25 26 27 33 35 35 34 34 34 33 33 33 33 32 30 30 30 30 31 31 32 32 32 33 33 33 33 32 33 33 34 34 35 35 35 35 36 37 36 37 36 37